Total_Precipitation_Accumulation
0.00 0.01 0.10 0.30 0.61 1.02 1.11 0.67 0.50 0.39 0.39 0.41 0.42 0.40 0.42 0.42 0.59 0.71 0.45 0.25 0.07 0.01 0.01 0.06 0.14 0.15 0.11 0.10 0.11 0.12 0.12 0.11 0.11 0.09 0.08 0.06 0.05 0.04 0.04 0.04 0.04 0.04 0.04 0.05 0.05 0.05 0.04 0.04 0.04
0.00 0.02 0.12 0.30 0.67 1.12 1.02 0.56 0.41 0.33 0.37 0.36 0.32 0.37 0.46 0.49 0.36 0.31 0.34 0.25 0.08 0.01 0.01 0.02 0.08 0.14 0.13 0.12 0.13 0.12 0.11 0.10 0.09 0.08 0.07 0.06 0.05 0.04 0.03 0.04 0.04 0.05 0.05 0.05 0.05 0.04 0.04 0.03 0.04
0.00 0.03 0.12 0.24 0.46 0.72 0.68 0.45 0.35 0.28 0.38 0.53 0.44 0.37 0.45 0.54 0.39 0.29 0.27 0.14 0.05 0.02 0.01 0.02 0.06 0.10 0.13 0.13 0.13 0.12 0.11 0.09 0.08 0.06 0.05 0.04 0.04 0.04 0.04 0.04 0.05 0.06 0.07 0.07 0.06 0.04 0.04 0.03 0.03
0.01 0.06 0.14 0.18 0.20 0.29 0.34 0.35 0.34 0.36 0.55 0.70 0.57 0.41 0.45 0.40 0.36 0.27 0.20 0.10 0.04 0.02 0.02 0.04 0.08 0.10 0.12 0.13 0.13 0.12 0.10 0.08 0.07 0.06 0.06 0.05 0.05 0.05 0.06 0.06 0.07 0.07 0.08 0.11 0.09 0.06 0.05 0.04 0.03
0.01 0.06 0.11 0.13 0.12 0.17 0.20 0.25 0.39 0.43 0.65 0.72 0.51 0.48 0.53 0.42 0.37 0.27 0.19 0.13 0.06 0.04 0.04 0.06 0.10 0.12 0.12 0.13 0.13 0.12 0.11 0.09 0.07 0.06 0.06 0.06 0.07 0.08 0.09 0.10 0.11 0.10 0.11 0.13 0.13 0.12 0.08 0.06 0.05
0.01 0.03 0.05 0.06 0.06 0.08 0.13 0.22 0.35 0.48 0.66 0.73 0.57 0.70 0.65 0.59 0.45 0.37 0.33 0.29 0.19 0.10 0.05 0.07 0.11 0.14 0.15 0.15 0.15 0.15 0.14 0.11 0.10 0.10 0.09 0.09 0.10 0.12 0.14 0.15 0.16 0.17 0.18 0.18 0.18 0.15 0.13 0.10 0.08
0.01 0.01 0.02 0.02 0.03 0.07 0.13 0.21 0.39 0.54 0.68 0.87 0.83 0.83 0.72 0.73 0.57 0.51 0.46 0.35 0.26 0.19 0.08 0.07 0.07 0.10 0.14 0.18 0.19 0.18 0.17 0.15 0.14 0.13 0.13 0.12 0.12 0.14 0.15 0.18 0.19 0.21 0.22 0.22 0.21 0.21 0.20 0.18 0.14
0.00 0.00 0.01 0.01 0.01 0.04 0.11 0.22 0.37 0.53 0.75 0.88 0.85 0.84 0.75 0.68 0.66 0.60 0.49 0.38 0.27 0.19 0.13 0.10 0.10 0.14 0.13 0.14 0.15 0.17 0.17 0.16 0.15 0.15 0.17 0.17 0.17 0.19 0.23 0.25 0.26 0.28 0.28 0.28 0.29 0.32 0.33 0.30 0.24
0.00 0.00 0.00 0.01 0.01 0.03 0.12 0.28 0.42 0.45 0.57 0.85 1.08 0.87 0.69 0.66 0.75 0.75 0.66 0.56 0.45 0.38 0.31 0.20 0.19 0.18 0.20 0.20 0.21 0.28 0.28 0.28 0.28 0.32 0.31 0.36 0.46 0.53 0.60 0.50 0.50 0.51 0.56 0.57 0.57 0.58 0.60 0.56 0.41
0.00 0.00 0.00 0.00 0.00 0.03 0.14 0.34 0.49 0.58 0.74 0.99 1.24 1.10 0.90 0.78 0.93 1.03 0.84 0.65 0.63 0.51 0.50 0.41 0.31 0.29 0.31 0.34 0.40 0.61 0.65 0.73 0.78 0.86 0.85 0.90 0.84 0.72 0.61 0.65 0.79 0.85 1.00 1.11 1.22 1.31 1.14 0.93 0.78
0.00 0.00 0.00 0.00 0.01 0.05 0.17 0.19 0.28 0.53 1.02 1.37 1.61 1.27 1.02 0.97 1.04 1.26 1.13 0.81 0.71 0.69 0.55 0.60 0.52 0.48 0.53 0.63 0.66 0.79 0.90 1.05 1.12 1.10 1.18 1.27 1.11 0.92 0.83 0.94 1.13 1.23 1.40 1.50 1.80 1.96 1.44 1.40 1.54
0.00 0.00 0.00 0.00 0.01 0.02 0.10 0.18 0.32 0.61 1.05 1.33 1.23 1.07 1.00 1.10 1.14 1.41 1.42 1.11 0.92 0.84 0.79 0.94 0.90 0.83 0.82 0.84 0.92 0.87 0.86 0.93 1.06 1.14 1.18 1.35 1.25 1.14 1.17 1.20 1.26 1.48 1.64 1.88 1.91 2.05 2.05 2.06 1.96
0.00 0.00 0.00 0.00 0.01 0.02 0.07 0.17 0.29 0.50 0.76 0.84 0.73 0.85 1.16 1.20 1.33 1.58 1.70 1.44 1.21 1.11 1.12 1.16 1.18 1.32 1.30 1.21 1.13 0.90 0.88 0.84 0.87 0.98 1.03 1.30 1.51 1.47 1.59 1.41 1.37 1.24 1.55 1.92 2.13 2.19 2.35 2.44 2.39
0.00 0.00 0.01 0.02 0.02 0.03 0.06 0.13 0.30 0.65 0.67 0.62 0.71 0.92 1.17 1.48 1.45 1.61 1.83 1.77 1.50 1.49 1.54 1.54 1.58 1.63 1.64 1.47 1.29 1.12 0.99 0.91 0.85 0.94 1.13 1.58 1.75 1.66 1.72 1.67 1.58 1.36 1.51 1.85 2.20 2.28 2.50 2.46 2.48
0.01 0.03 0.08 0.08 0.06 0.06 0.09 0.31 0.54 0.70 0.67 0.66 0.83 0.97 1.29 1.70 1.68 1.73 1.87 1.90 1.85 1.89 1.98 2.04 2.12 1.98 1.92 1.78 1.47 1.23 1.02 0.86 0.94 1.13 1.33 1.63 1.79 1.88 2.06 1.95 1.64 1.49 1.68 1.87 1.90 2.02 2.48 2.31 2.25
0.02 0.06 0.22 0.16 0.07 0.08 0.15 0.52 0.72 0.75 0.76 0.79 0.89 1.11 1.36 1.69 1.61 1.58 1.68 1.93 2.11 2.30 2.61 2.75 2.72 2.70 2.63 2.24 1.87 1.58 1.38 1.26 1.33 1.42 1.38 1.36 1.53 1.71 1.89 1.62 1.31 1.48 1.76 1.90 1.81 1.81 2.17 2.21 2.19
0.05 0.08 0.17 0.16 0.10 0.10 0.18 0.54 0.58 0.48 0.76 1.04 1.16 1.29 1.29 1.42 1.52 1.54 1.66 1.93 2.36 2.76 3.19 3.49 3.63 3.36 2.98 2.40 1.94 1.57 1.56 1.53 1.50 1.42 1.23 1.10 1.03 1.08 1.19 1.03 0.98 1.21 1.48 1.49 1.32 1.44 1.71 1.79 1.86
0.04 0.08 0.13 0.17 0.14 0.14 0.25 0.48 0.60 0.51 0.71 0.94 0.99 1.25 1.27 1.25 1.38 1.58 1.83 2.01 2.47 2.87 3.32 3.60 3.72 3.30 2.69 2.30 2.09 1.75 1.56 1.45 1.40 1.24 1.02 0.83 0.77 0.75 0.83 0.82 0.79 0.88 0.92 0.94 1.10 1.25 1.40 1.29 1.36
0.03 0.07 0.15 0.17 0.15 0.22 0.35 0.60 0.72 0.66 0.67 0.69 0.77 0.97 0.98 1.02 1.19 1.47 1.87 2.19 2.54 3.14 3.64 3.76 3.47 2.72 2.20 1.85 1.66 1.45 1.26 1.10 0.97 0.88 0.78 0.69 0.69 0.64 0.64 0.61 0.63 0.69 0.69 0.68 0.83 0.95 0.96 0.79 0.95
0.05 0.09 0.16 0.16 0.12 0.14 0.33 0.63 0.71 0.73 0.76 0.68 0.71 0.80 0.71 0.78 1.04 1.48 2.06 2.58 2.83 3.01 3.12 2.97 2.55 1.92 1.49 1.20 1.02 0.82 0.68 0.61 0.57 0.52 0.52 0.53 0.54 0.54 0.53 0.50 0.48 0.49 0.52 0.54 0.60 0.71 0.71 0.63 0.74
0.07 0.08 0.13 0.17 0.12 0.14 0.33 0.71 0.82 0.77 0.73 0.66 0.54 0.55 0.64 0.78 1.25 1.93 2.59 2.97 2.92 2.70 2.26 1.77 1.38 1.05 0.93 0.77 0.62 0.47 0.38 0.32 0.30 0.29 0.31 0.33 0.33 0.33 0.33 0.32 0.32 0.34 0.39 0.42 0.49 0.57 0.59 0.54 0.52
0.09 0.06 0.05 0.06 0.11 0.31 0.43 0.82 0.85 0.82 0.77 0.54 0.50 0.57 0.68 0.89 1.38 2.05 2.52 2.48 2.34 2.03 1.53 1.18 0.95 0.74 0.61 0.52 0.48 0.40 0.31 0.29 0.27 0.24 0.25 0.24 0.23 0.23 0.23 0.21 0.21 0.22 0.25 0.33 0.35 0.44 0.55 0.54 0.43
0.05 0.04 0.04 0.08 0.17 0.33 0.45 0.69 0.84 0.80 0.82 0.44 0.37 0.46 0.58 0.78 1.01 1.21 1.36 1.31 1.16 1.00 1.00 0.95 0.85 0.77 0.64 0.54 0.50 0.43 0.31 0.27 0.27 0.26 0.25 0.26 0.26 0.24 0.23 0.22 0.21 0.21 0.21 0.24 0.28 0.36 0.46 0.52 0.47
0.04 0.06 0.12 0.21 0.36 0.68 0.65 0.73 0.92 0.86 0.74 0.36 0.20 0.27 0.46 0.57 0.57 0.56 0.53 0.52 0.51 0.50 0.58 0.62 0.58 0.65 0.65 0.58 0.49 0.45 0.38 0.31 0.26 0.24 0.23 0.22 0.23 0.25 0.25 0.25 0.26 0.26 0.26 0.26 0.26 0.28 0.33 0.45 0.53
0.05 0.09 0.31 0.61 0.91 0.95 0.53 0.59 0.92 0.83 0.52 0.25 0.12 0.11 0.19 0.31 0.39 0.43 0.44 0.46 0.47 0.38 0.37 0.42 0.40 0.40 0.42 0.40 0.36 0.36 0.38 0.32 0.26 0.21 0.17 0.18 0.18 0.20 0.22 0.23 0.25 0.28 0.30 0.31 0.28 0.29 0.28 0.36 0.46
0.06 0.07 0.17 0.32 0.38 0.47 0.50 0.94 1.06 0.54 0.28 0.14 0.08 0.05 0.10 0.17 0.22 0.26 0.28 0.31 0.31 0.25 0.24 0.27 0.30 0.29 0.25 0.22 0.21 0.22 0.25 0.24 0.22 0.25 0.19 0.18 0.19 0.20 0.20 0.20 0.19 0.22 0.27 0.32 0.34 0.32 0.33 0.36 0.38
0.06 0.04 0.06 0.08 0.14 0.35 0.64 0.90 0.73 0.33 0.21 0.09 0.04 0.04 0.05 0.09 0.10 0.11 0.12 0.15 0.16 0.17 0.19 0.20 0.22 0.22 0.18 0.16 0.14 0.14 0.17 0.18 0.19 0.21 0.19 0.18 0.22 0.21 0.20 0.20 0.20 0.22 0.24 0.28 0.32 0.32 0.34 0.38 0.39
0.06 0.06 0.06 0.08 0.15 0.31 0.54 0.84 0.80 0.39 0.20 0.08 0.06 0.06 0.05 0.05 0.06 0.06 0.06 0.08 0.08 0.10 0.14 0.15 0.15 0.17 0.15 0.13 0.10 0.07 0.09 0.12 0.14 0.13 0.14 0.15 0.17 0.19 0.20 0.20 0.19 0.20 0.21 0.23 0.27 0.29 0.35 0.42 0.47
0.08 0.08 0.09 0.09 0.09 0.16 0.37 0.53 0.35 0.24 0.16 0.10 0.07 0.05 0.03 0.04 0.05 0.05 0.03 0.03 0.04 0.07 0.09 0.10 0.10 0.13 0.13 0.12 0.09 0.07 0.07 0.08 0.10 0.13 0.14 0.16 0.14 0.13 0.14 0.16 0.18 0.19 0.21 0.25 0.31 0.34 0.38 0.48 0.60
0.11 0.11 0.11 0.12 0.11 0.10 0.19 0.26 0.19 0.19 0.18 0.12 0.08 0.06 0.02 0.03 0.02 0.01 0.01 0.01 0.03 0.04 0.06 0.08 0.08 0.12 0.11 0.10 0.09 0.08 0.06 0.07 0.08 0.10 0.12 0.13 0.13 0.14 0.13 0.13 0.14 0.14 0.15 0.21 0.31 0.42 0.44 0.47 0.55